Location: Buckeye Ditch
(40.9104°N, 122.9517°W)
Time: 19:33:56
(UTC+00:00)

BlueWalker 3 - Pass Details

Date: 25 June 2024
Orbit: 480 x 491 km, 53.2° (Epoch: 24 July)

Event Time Altitude Azimuth Distance (km) Brightness Sun altitude
Rises 04:40:08 0° 273° (W) 2,540 6.4 -8.7°
Reaches altitude 10° 04:42:45 10° 291° (WNW) 1,660 5.8 -9.1°
Maximum altitude 04:45:33 20° 339° (NNW) 1,177 4.8 -9.5°
Drops below altitude 10° 04:48:21 10° 28° (NNE) 1,660 4.8 -9.9°
Sets 04:50:58 0° 46° (NE) 2,540 5.5 -10.2°
